Retour au catalogue

STARLINK-32138

ActifCommunicationsVLEO
NORAD 60255·PAYLOAD·🇺🇸 United States

Lancé Jul 27, 2024 depuis Cape Canaveral Space Force Station

Loading…

Prochains Passages (prochaines 24 heures)

TLE

FraisSource: CelesTrak SupGP

Époque: Sep 15, 2026, 02:54 UTC

1 60255C 24131A   26258.12131944 -.00033116  00000+0 -10647-2 0  2580
2 60255  53.1567 251.2023 0001302  96.4281 145.7259 15.31725964    15

Suivez STARLINK-32138 en temps réel avec AllMySat

Download on the App Store